Погода в Дружбе

Украина / Сумская область     52°02′28″N   33°56′37″E
темп.,
°C
ветер,
м/с
пор.,
м/с
влажн.,
%
обл.,
%
осадки,
мм/ч
давл.,
гПа
погр.,
м
8 мая, сб
сб800:00+9ю61593100 2.2 1009782
03:00+9ююв61396100 5.6 1007818
06:00+10ююв61294100 1.4 1005588
09:00+10ююз61296100 4.5 1004790
12:00+9ссз3794100 5.7 1003351
15:00+9з4794100 6.1 1004451
18:00+5сз91394100 2.5 1007746
21:00+5зсз81493100 5.3 10111019
9 мая, вс
вс900:00+5зсз7128891 1.1 1012775
03:00+3зсз6148757 1.1 1015526
06:00+2сз614885 0.0 1017467
09:00+6сз711685 0.0 10191064
12:00+10сз8105281 0.0 10202059
15:00+11сз81044100 0.0 10222557
18:00+10сз68545 0.0 10231527
21:00+6сз36705 0.0 102680
10 мая, пн
пн1000:00+4сз34735 0.0 102751
03:00+3ссз34775 0.0 102855
06:00+3с34807 0.0 103075
09:00+10ссв23595 0.0 1030396
12:00+13с34435 0.0 10301450
15:00+15ссв35405 0.0 10281783
18:00+14св46550 0.0 1028695
21:00+8св33740 0.0 102935
11 мая, вт
вт1100:00+6св48800 0.0 1028133
03:00+5ссв411810 0.0 1028174
06:00+5ссв514770 0.0 1027314
09:00+11св813593 0.0 1026610
12:00+15св810565 0.0 1025910
15:00+17всв796381 0.0 10231086
18:00+13всв7118183 0.0 1024786
21:00+9всв47941 0.1 1024139
12 мая, ср
ср1200:00+8всв389348 0.0 1023151
03:00+9юв3889100 0.1 1022395
06:00+8в2496100 1.4 1021190
09:00+11в57775 1.8 1021734
12:00+13вюв7106877 0.3 10201420
15:00+13вюв697156 1.0 10191264
18:00+10юв61289100 1.1 1019805
21:00+9вюв41195100 2.3 1018572